| time (UTC) | temp F | wind direction | speed MPH | gust MPH | rain 1hr in | rain 24hr in | rain mn in | humidity % | barometer mb |
| 20260509221504 | 0 | 310 | 5.0 | 17.0 | 0.00 | 0.20 | 0.03 | 1005.2 | |
| 20260509220004 | 63 | 276 | 6.0 | 13.0 | 0.00 | 0.20 | 0.03 | 79 | 1005.1 |
| 20260509214504 | 62 | 295 | 5.0 | 10.0 | 0.00 | 0.20 | 0.03 | 83 | 1005.2 |
| 20260509212959 | 61 | 240 | 4.0 | 12.0 | 0.00 | 0.20 | 0.03 | 84 | 1005.3 |
| 20260509211504 | 61 | 247 | 4.0 | 10.0 | 0.00 | 0.20 | 0.03 | 85 | 1005.2 |
| 20260509210003 | 60 | 230 | 3.0 | 11.0 | 0.00 | 0.20 | 0.03 | 85 | 1005.2 |
| 20260509203004 | 59 | 243 | 3.0 | 8.0 | 0.01 | 0.20 | 0.03 | 86 | 1005.0 |
| 20260509201504 | 59 | 270 | 5.0 | 11.0 | 0.01 | 0.20 | 0.03 | 88 | 1004.7 |
| 20260509194504 | 57 | 269 | 1.0 | 6.0 | 0.00 | 0.19 | 0.02 | 90 | 1004.5 |
| 20260509193001 | 56 | 289 | 0.0 | 4.0 | 0.00 | 0.19 | 0.02 | 89 | 1004.4 |
| 20260509191503 | 56 | 239 | 2.0 | 6.0 | 0.00 | 0.19 | 0.02 | 89 | 1004.3 |
| 20260509190004 | 56 | 259 | 4.0 | 8.0 | 0.00 | 0.19 | 0.02 | 89 | 1004.2 |
| 20260509183004 | 56 | 231 | 0.0 | 2.0 | 0.00 | 0.19 | 0.02 | 88 | 1004.2 |
| 20260509181504 | 56 | 283 | 4.0 | 12.0 | 0.00 | 0.19 | 0.02 | 85 | 1004.3 |
| 20260509174501 | 55 | 277 | 0.0 | 0.0 | 0.00 | 0.19 | 0.02 | 87 | 1003.7 |
| 20260509173000 | 55 | 264 | 0.0 | 0.0 | 0.00 | 0.19 | 0.02 | 88 | 1003.6 |
| 20260509171501 | 55 | 260 | 0.0 | 0.0 | 0.00 | 0.19 | 0.02 | 88 | 1003.6 |
| 20260509170003 | 55 | 262 | 0.0 | 3.0 | 0.00 | 0.19 | 0.02 | 89 | 1003.4 |
| 20260509164504 | 55 | 258 | 0.0 | 3.0 | 0.00 | 0.19 | 0.02 | 89 | 1003.5 |
| 20260509160001 | 55 | 256 | 0.0 | 3.0 | 0.01 | 0.19 | 0.02 | 89 | 1003.3 |
| 20260509154501 | 55 | 255 | 0.0 | 0.0 | 0.01 | 0.19 | 0.02 | 89 | 1003.4 |
| 20260509153000 | 56 | 255 | 1.0 | 4.0 | 0.01 | 0.19 | 0.02 | 90 | 1003.4 |
| 20260509150000 | 55 | 271 | 0.0 | 0.0 | 0.00 | 0.21 | 0.02 | 91 | 1003.6 |
| 20260509144500 | 55 | 271 | 0.0 | 0.0 | 0.00 | 0.21 | 0.02 | 92 | 1003.6 |
| 20260509143004 | 56 | 271 | 0.0 | 0.0 | 0.00 | 0.21 | 0.02 | 92 | 1003.8 |
| 20260509141500 | 56 | 278 | 1.0 | 4.0 | 0.00 | 0.21 | 0.02 | 92 | 1003.8 |
| 20260509140000 | 57 | 231 | 0.0 | 1.0 | 0.00 | 0.25 | 0.02 | 92 | 1003.9 |
| 20260509134503 | 57 | 235 | 1.0 | 3.0 | 0.00 | 0.25 | 0.02 | 93 | 1003.7 |
| 20260509133000 | 57 | 262 | 1.0 | 8.0 | 0.00 | 0.25 | 0.02 | 93 | 1003.7 |
| 20260509131501 | 56 | 274 | 0.0 | 0.0 | 0.00 | 0.25 | 0.02 | 93 | 1003.7 |
| 20260509130004 | 57 | 274 | 0.0 | 0.0 | 0.02 | 0.25 | 0.02 | 93 | 1003.5 |
| 20260509124504 | 57 | 274 | 0.0 | 0.0 | 0.02 | 0.25 | 0.02 | 93 | 1003.7 |
| 20260509121506 | 57 | 274 | 0.0 | 0.0 | 0.04 | 0.25 | 0.02 | 93 | 1004.0 |
| 20260509120009 | 57 | 276 | 0.0 | 0.0 | 0.03 | 0.24 | 0.00 | 92 | 1004.0 |
| 20260509114503 | 57 | 276 | 0.0 | 0.0 | 0.03 | 0.27 | 0.03 | 92 | 1004.1 |
| 20260509113004 | 57 | 276 | 0.0 | 0.0 | 0.02 | 0.25 | 0.02 | 92 | 1004.3 |
| 20260509111506 | 57 | 278 | 0.0 | 0.0 | 0.01 | 0.24 | 0.01 | 92 | 1004.4 |
| 20260509010520 | 67 | 341 | 3.0 | 14.0 | 0.01 | 0.20 | 0.12 | 80 | 1004.4 |
| 20260509010019 | 67 | 281 | 3.0 | 10.0 | 0.01 | 0.20 | 0.12 | 81 | 1004.5 |
| 20260509005520 | 66 | 276 | 2.0 | 10.0 | 0.01 | 0.20 | 0.12 | 82 | 1004.7 |
| 20260509005034 | 65 | 254 | 5.0 | 12.0 | 0.01 | 0.20 | 0.12 | 81 | 1004.8 |
| 20260509004521 | 65 | 271 | 7.0 | 13.0 | 0.01 | 0.20 | 0.12 | 83 | 1004.9 |
| 20260509004019 | 64 | 259 | 8.0 | 12.0 | 0.01 | 0.20 | 0.12 | 84 | 1005.1 |
| 20260509003519 | 64 | 272 | 4.0 | 13.0 | 0.01 | 0.20 | 0.12 | 84 | 1005.2 |
| 20260509003019 | 64 | 299 | 7.0 | 15.0 | 0.01 | 0.20 | 0.12 | 84 | 1005.3 |
| 20260509002519 | 64 | 255 | 9.0 | 19.0 | 0.01 | 0.20 | 0.12 | 83 | 1005.3 |
| 20260509002020 | 65 | 303 | 9.0 | 19.0 | 0.01 | 0.20 | 0.12 | 80 | 1005.4 |
| 20260509001520 | 67 | 272 | 4.0 | 10.0 | 0.00 | 0.20 | 0.11 | 81 | 1005.4 |
| 20260509001023 | 67 | 296 | 4.0 | 10.0 | 0.00 | 0.20 | 0.11 | 81 | 1005.5 |
| 20260509000518 | 66 | 330 | 3.0 | 9.0 | 0.00 | 0.20 | 0.11 | 82 | 1005.6 |
| 20260509000018 | 65 | 301 | 3.0 | 10.0 | 0.00 | 0.20 | 0.11 | 82 | 1005.7 |
| 20260508235529 | 65 | 268 | 5.0 | 12.0 | 0.00 | 0.20 | 0.11 | 81 | 1005.7 |
| 20260508235021 | 66 | 290 | 5.0 | 12.0 | 0.00 | 0.20 | 0.11 | 81 | 1005.7 |
| 20260508230018 | 63 | 322 | 3.0 | 7.0 | 0.08 | 0.20 | 0.11 | 90 | 1006.3 |
| 20260508230014 | 63 | 316 | 3.0 | 7.0 | 0.08 | 0.20 | 0.11 | 90 | 1006.3 |